User: anonymous   Login
Location: NJAA Observatory
(40.6819°N, 74.8979°W)
Time: 22:09:29
(UTC-04:00)
Language:

Iridium 84 - Orbit

View from above orbital plane
View from above orbital plane
View from above satellite
View from above satellite

Ground track
Ground track

The orbit data is extracted from the following two-line orbital elements,

1 25530U 98066D   17147.70267949 +.00000023 +00000-0 +98817-6 0  9992
2 25530 086.3953 358.5356 0002188 089.4675 270.6771 14.34219248973999
Epoch (UTC): 27 May 2017 16:51:51
Eccentricity: 0.0002188
inclination: 86.3953°
perigee height: 776 km
apogee height: 779 km
right ascension of ascending node: 358.5356°
argument of perigee: 89.4675°
revolutions per day: 14.34219248
mean anomaly at epoch: 270.6771°
orbit number at epoch: 97399

The dashed part of the orbit path shows where the satellite is in the earth's shadow,  

DLR